Regional Weather Roundup
Issued by NWS

Home | Current Version | Previous Version | Text Only | Print | Product List | Glossary On
Versions: 1 2 3 4 5 6 7 8 9 10 11 12 13 14 15 16 17 18 19 20 21 22 23 24 25 26 27 28 29 30 31 32 33 34 35 36 37 38 39 40 41 42 43 44 45 46 47 48 49 50
000
ASUS44 KLUB 011510
RWRTX
WEST TEXAS WEATHER ROUNDUP
NATIONAL WEATHER SERVICE LUBBOCK TX
1000 AM CDT SAT AUG 01 2015

NOTE: "FAIR" INDICATES FEW OR NO CLOUDS BELOW 12,000 FEET WITH NO
SIGNIFICANT WEATHER AND/OR OBSTRUCTIONS TO VISIBILITY.

TXZ004-006>008-010-012-014-016-OKZ002-011600-
TEXAS PANHANDLE/OKLAHOMA PANHANDLE

CITY           SKY/WX    TMP DP  RH WIND       PRES   REMARKS
AMARILLO       LGT RAIN  68  65  90 SE10      30.20F
BORGER         LGT RAIN  69  67  93 SE5       30.18S FOG
CANADIAN       CLOUDY    77  69  77 SW7       30.14S
DALHART        MOSUNNY   75  67  76 S15       30.19S
DUMAS          PTSUNNY   67  65  94 SE10      30.20S
GUYMON         HVY RAIN  70  67  90 S14       30.15R FOG
HEREFORD       CLOUDY    71  68  91 MISG      30.22S
PAMPA          DRIZZLE   69  67  90 CALM      30.21S
$$

TXZ026-029-035-045-048-011600-
SOUTHERN PANHANDLE/SOUTH PLAINS/ROLLING PLAINS

CITY           SKY/WX    TMP DP  RH WIND       PRES   REMARKS
CHILDRESS      LGT RAIN  71  70  96 W5        30.14R FOG
SEMINOLE       SUNNY     81  63  53 S5        30.18S
LUBBOCK        CLOUDY    72  66  81 E12       30.19S
PLAINVIEW      DRIZZLE   70  63  78 SE13      30.17F
SNYDER         SUNNY     77  68  74 NE15      30.16R
$$

TXZ052-054-060>062-072-078-127-140-154-169-011600-
PERMIAN BASIN/CONCHO VALLEY/BIG COUNTRY/EDWARDS PLATEAU

CITY           SKY/WX    TMP DP  RH WIND       PRES   REMARKS
ABILENE        MOSUNNY   80  68  66 E12       30.13R
BIG SPRING     SUNNY     80  63  56 E6        30.16R
BRADY          MOSUNNY   84  66  54 E5        30.10R
BROWNWOOD      MOSUNNY   82  64  54 SE6       30.10S
JUNCTION       SUNNY     84  68  58 NE10      30.09R
MIDLAND        SUNNY     82  66  58 SE3       30.13R
ODESSA         SUNNY     83  63  50 S6        30.14S
SAN ANGELO     SUNNY     84  68  58 NE9       30.10R
SONORA         SUNNY     84  66  54 E6        30.14R
SWEETWATER     SUNNY     78  68  70 NE14      30.17S
WINK           SUNNY     84  64  50 SE10      30.10S
$$

TXZ055-058-074-075-080-082-011600-
FAR WEST/SOUTHWEST MOUNTAINS/TRANS PECOS

CITY           SKY/WX    TMP DP  RH WIND       PRES   REMARKS
ALPINE         SUNNY     78  60  52 CALM      30.26S
DRYDEN           N/A     85  68  56 VRB5      30.06S
EL PASO        MOSUNNY   80  60  50 N12       30.16R
FORT STOCKTON  SUNNY     84  64  50 SE7       30.12R
GUADALUPE PASS MOSUNNY   75  58  55 E14       30.30R
MARFA          MOSUNNY   75  61  60 SE6       30.25R
PECOS          SUNNY     83  63  50 E6        30.10R
PRESIDIO       FAIR      87  61  41 MISG      30.09R
$$

TXZ014-016-019-021>030-083-011600
TEXAS TECH WEST TEXAS MESONET/TEXAS PANHANDLE/NORTHERN SOUTH PLAINS

CITY           SKY/WX    TMP DP  RH WIND       PRES   REMARKS
ABERNATHY 5ENE   N/A     70  65  84 E9        30.20F
AMARILLO 9NNE    N/A     70  66  89 S8        30.19S
AMARILLO 7SSE    N/A     68  66  93 SE9       30.21S
AMHERST 1NE      N/A     70  65  84 SE9       30.20S
BOOTLEG 11WNW    N/A     70  67  89 S12       30.25S
CANADIAN 6E      N/A     78  68  69 W7        30.13S
CAPROCK CYN SP   N/A     70  67  93 S5        30.17F
CHILDRESS 2NNE   N/A     70  68  92 SW3       30.13S
CLARENDON 2WSW   N/A     69  65  85 W6        30.18S
CLAUDE 12SW      N/A     68  67  96 E2        30.20F
DIMMITT 2NE      N/A     69  66  91 SE6       30.22S
FLOYDADA 2NNE    N/A     67  66  97 SE5       30.19R
FRIONA 2NE       N/A     70  65  86 SE7       30.24R
GOODLETT 3W      N/A     73  67  81 SW3       30.12S
HART 3N          N/A     69  66  91 E6        30.21R
HEREFORD 2NW     N/A     68  64  85 E3        30.22S
MCLEAN 1E      LGT RAIN  69  67  93 NW7       30.15F
MEMPHIS 1NE      N/A     70  69  94 NW1       30.14S
MULESHOE 2SSW    N/A     70  65  86 SE6       30.22R
OLTON 6S         N/A     68  65  90 E8        30.20R
PALO DURO SP     N/A     67  65  96 SE3       30.21F
PAMPA 2E         N/A     68  65  91 CALM      30.19S
PLAINVIEW 1S     N/A     69  68  96 SE10      30.17F
SILVERTON 7ESE   N/A     68  67  94 SE3       30.19S
TULIA 2ENE       N/A     68  67  96 E6        30.20S
TURKEY 2WSW      N/A     70  69  94 S3        30.16S
UMBARGER 3NNE    N/A     69  66  90 SE6       30.22S
$$

TXZ033>036-039>041-045>048-011600
TEXAS TECH WEST TEXAS MESONET/SOUTH PLAINS

CITY           SKY/WX    TMP DP  RH WIND       PRES   REMARKS
AIKEN 3WSW       N/A     69  68  96 SE9       30.19F
ANDREWS 2NE      N/A     84  60  45 SE3       30.16S
ANTON 6SSW       N/A     70  65  85 E9        30.20R
BROWNFIELD 2S    N/A     76  65  69 E10       30.19S
DENVR CTY 7WNW   N/A     78  62  57 NE7       30.19S
GAIL 2ESE        N/A     78  67  68 E9        30.15R
LAMESA 2SE       N/A     79  66  64 E9        30.17R
LEVELLAND 4S     N/A     71  64  78 E10       30.20S
LUBBOCK 3WNW     N/A     71  65  81 E9        30.20S
MORTON 1ENE      N/A     72  65  78 E12       30.21S
ODONNELL 1N      N/A     76  66  69 NE12      30.18R
PLAINS 3N        N/A     76  64  65 E10       30.20F
RALLS 1SE        N/A     70  65  85 NE9       30.21S
REESE CENTER     N/A     70  65  85 E13       30.20S
SEAGRAVES 1SW    N/A     78  65  63 E6        30.18S
SEMINOLE 2NNE    N/A     80  63  56 E5        30.17S
SLATON 2NE       N/A     72  66  80 NE10      30.20R
SNYDER 3E        N/A     77  68  72 NE14      30.15R
SUNDOWN 8SW      N/A     73  65  74 E8        30.20F
TAHOKA 3NNE      N/A     74  66  75 E8        30.18S
WOLFFORTH 6SSW   N/A     74  66  76 E10       30.20S
$$

TXZ031-032-036>038-042>044-011600-
TEXAS TECH WEST TEXAS MESONET/ROLLING PLAINS

CITY           SKY/WX    TMP DP  RH WIND       PRES   REMARKS
ASPERMONT 3NE    N/A     73  68  84 NE5       30.12F
FLUVANNA 3WNW    N/A     76  66  69 NE13      30.16S
GRAHAM 5SSW      N/A     75  66  72 E12       30.18R
GUTHRIE 10WSW    N/A     71  68  90 NE6       30.14S
HASKELL 1NW      N/A     71  67  86 NE9       30.10F
JAYTON 1SSE      N/A     75  67  76 NE8       30.14S
KNOX CITY 3NW    N/A     71  67  88 NE9       30.09F
LK A HENRY 1NW   N/A     74  68  80 E6        30.15S
NORTHFIELD 1S    N/A     71  70  97 NE1       30.14S
ODELL 4ENE       N/A     75  71  88 CALM      30.12S
PADUCAH 10SW     N/A     69  68  96 SE5       30.14F
POST 1NE         N/A     76  67  71 E8        30.17S
RRING SPRGS 3N RAIN      67  66  97 N7        30.18R
SEYMOUR 3NW      N/A     74  70  88 SW3       30.10F
SPUR 1W          N/A     72  65  79 NE7       30.16R
WEINERT 2NNE   LGT RAIN  71  70  96 N6        30.12F
WHITE RVR 6NE    N/A     73  65  75 NE6       30.18R
$$

TXZ052-054-060>062-072-078-127-140-154-169-011600-
TEXAS TECH WEST TEXAS MESONET/PERMIAN BASIN/
CONCHO VALLEY/BIG COUNTRY/EDWARDS PLATEAU

CITY           SKY/WX    TMP DP  RH WIND       PRES   REMARKS
COYANOSA 2N      N/A     85  66  53 E9        30.10S
JUNCTION 1SSW    N/A     83  69  62 NE7       30.09S
MERTZON 3NNE     N/A     83  69  62 NE5       30.12S
SAN ANGELO 7NW   N/A     86  66  50 NE6       30.10S
STRLNG CT 4WSW   N/A     85  67  54 NE3       30.13S
ST LAWRNCE 5SW   N/A     83  66  55 SE6       30.13S
SWEETWATR 11SW   N/A     79  68  68 NE14      30.16R
WALL 1E          N/A     83  67  58 NE7       30.11S
$$

TXZ055-058-074-075-080-082-011600-
TEXAS TECH WEST TEXAS MESONET/FAR WEST/SOUTHWEST MOUNTAINS/TRANS PECOS

CITY           SKY/WX    TMP DP  RH WIND       PRES   REMARKS
PRSMN GAP BBNP   N/A     81  64  56 N7        30.10S
$$



USA.gov is the U.S. government's official web portal to all federal, state and local government web resources and services.